Terminal Aerodrome Forecast
Issued by NWS Greer, SC

Home | Current Version | Previous Version | Text Only | Print | Product List | Glossary On
Versions: 1 2 3 4 5 6 7 8 9 10 11 12 13 14 15 16 17 18 19 20 21 22 23 24 25 26 27 28 29 30 31 32 33 34 35 36 37 38 39 40 41 42 43 44 45 46 47 48 49 50
000
FTUS42 KGSP 262045 AAA
TAFCLT
TAF AMD
KCLT 262045Z 2621/2718 34007KT P6SM VCSH SCT045 OVC060
     FM262300 34009G17KT P6SM BKN070 BKN090
     FM270300 33007KT P6SM SCT090
     FM271200 32003KT P6SM BKN100
     FM271400 32005KT P6SM SCT100=

USA.gov is the U.S. government's official web portal to all federal, state and local government web resources and services.